weather.gov     
National Weather Service

Regional Weather Roundup
NWS Homepage
This page is being discontinued on March 12, 2014.
The same data is available at this site. Please update your bookmarks.
Thank you, and we apologize for the inconvenience.
Please send an email to SR-SRH.Webmaster@noaa.gov with any concerns.


Current Version
Previous Version:    01  02  03  04  05  06  07  08  09  10  11  12  13  14  15  16  17  18  19  20  21  22  23  24  25  26  27  28  29  30  
   31  32  33  34  35  36  37  38  39  40  41  42  43  44  45  46  47  48  49  50  
[Printable]
287
ASUS45 KTFX 161019
RWRMT
MONTANA HOURLY WEATHER ROUNDUP
NATIONAL WEATHER SERVICE GREAT FALLS MT
419 AM MDT WED APR 16 2014

NOTE: "FAIR" INDICATES FEW OR NO CLOUDS BELOW 12000 FEET WITH NO
SIGNIFICANT WEATHER AND/OR OBSTRUCTIONS TO VISIBILITY.

* THESE STATIONS ARE NOT UNDER NWS QUALITY CONTROL. THEY DO NOT
   REPORT WEATHER SUCH AS PRECIPITATION OR FOG.

MTZ001>007-043-161100-
WEST OF THE DIVIDE
CITY           SKY/WX    TMP DP  RH WIND       PRES   REMARKS
KALISPELL      FOG       27  27 100 CALM      29.93S VSB 1 1/4
MISSOULA       PTCLDY    30  28  92 N3        29.99S
BUTTE          CLOUDY    30  19  64 CALM      29.95S
MULLAN PASS    PTCLDY    27  21  78 S8        29.91S WCI  19
* ESSEX        N/A       32  31  96 N/A        N/A
* LINCOLN      N/A       32  29  89 S2G7       N/A
* LOOKOUT PASS N/A       29  28  96 N/A        N/A
* POLSON       N/A       30  27  89 S1         N/A
* RONAN APT    PTCLDY    36  28  73 N/A        N/A
* SEELEY LAKE  N/A       32  31  96 N/A        N/A
* THOMP F APT  PTCLDY    29  14  53 N12G21     N/A   WCI  19
* YAAK HILL    N/A       30  29  96 N/A        N/A
$$

MTZ008-052>055-161100-
SOUTHWEST MONTANA
CITY           SKY/WX    TMP DP  RH WIND       PRES   REMARKS
BOZEMAN        CLOUDY    34  28  79 SE9       29.96S WCI  27
DILLON         MOCLDY    30  18  61 S7        29.96S WCI  23
W YELLOWSTONE  N/A       21  19  92 N/A        N/A
* THREE FORKS  CLOUDY    39  25  57 N/A        N/A
* BOULDER HILL N/A       32  19  59 S2G8       N/A
* MONIDA PASS  N/A       25  13  60 W12G20     N/A   WCI  14
* RAYNOLDS PAS N/A       22  22 100 N4         N/A
* WHITEHALL    N/A       33  18  54 NW5G11     N/A   WCI  28
* WISE RIVER   N/A       30  18  61 W6G12      N/A   WCI  24
$$

MTZ009>010-012-014-046-048-049-054-161100-
EAST SLOPES AND CENTRAL MONTANA
CITY           SKY/WX    TMP DP  RH WIND       PRES   REMARKS
CUT BANK       SNOW      34  32  92 NE3       29.91R VSB 1/2
GREAT FALLS    CLOUDY    34  34 100 NW10      29.90R WCI  26
HELENA         PTCLDY    37  27  67 W9        29.94R WCI  30
MALMSTROM AFB  LGT SNOW  34  30  85 N7        29.90R VSB 2 1/2 WCI  28
* CONRAD       MOCLDY    34  34 100 N/A        N/A
* DEARBORN     N/A       31  30  96 SW2        N/A
* EAST GLACIER N/A       30  29  96 NE6        N/A   WCI  24
* MONARCH      N/A       29  26  89 SW11G16    N/A   WCI  19
* PENDROY      N/A       31  30  96 NE2        N/A
* ROGERS PASS  N/A       30  26  85 E8         N/A   WCI  22
* SAINT MARY   N/A       31  30  96 SE2        N/A
* SWEET GRASS  N/A       32  32 100 S4         N/A
* WHITE SULPH  N/A       31  24  75 S3         N/A
$$

MTZ011-013-016-021-035-040-045-047-050-051-161100-
NORTH CENTRAL MONTANA
CITY           SKY/WX    TMP DP  RH WIND       PRES   REMARKS
HAVRE          LGT SNOW  32  30  92 CALM      29.94R
LEWISTOWN      LGT SNOW  32  30  92 NW9       29.88R VSB 1 3/4 WCI  24
* FORT BENTON  CLOUDY    34  28  79 CALM      29.96R
* MALTA APT    PTCLDY    28  18  66 N9        29.90R WCI  19
* CHESTER      N/A       32  30  92 N/A        N/A
* DENTON       N/A       33  32  96 W4G9       N/A
* GEYSER       N/A       34  33  96 NW9        N/A   WCI  27
* JUDITH GAP   N/A       32  32 100 N3         N/A
* LOMA         N/A       35  30  82 VRB12      N/A   WCI  27
$$

MTZ017>020-022>027-061-062-161100-
NORTHEAST MONTANA
CITY           SKY/WX    TMP DP  RH WIND       PRES   REMARKS
GLASGOW        PTCLDY    25  19  78 CALM      29.91R
GLENDIVE       CLOUDY    28  18  66 NE10      29.83R WCI  19
JORDAN         CLOUDY    28  19  69 N7        29.85R WCI  21
SIDNEY         MOCLDY    27  19  72 NE9       29.90R WCI  18
WOLF POINT     PTCLDY    27  19  72 NE13      29.90R WCI  16
* BEAVER HILL  N/A       25  17  72 NE11       N/A   WCI  14
* CIRCLE       N/A       28  20  72 VRB10      N/A   WCI  19
* LINDSAY DVD  N/A       26  19  75 NE11       N/A   WCI  16
* NAVAJO       N/A       24  20  85 E14G19     N/A   WCI  12
* SACO         N/A       20  15  81 VRB8       N/A   WCI  10
$$

MTZ028>042-056>058-161100-
SOUTHCENTRAL AND SOUTHEAST MONTANA
CITY           SKY/WX    TMP DP  RH WIND       PRES   REMARKS
BAKER          MOCLDY    28  21  75 E7        29.74R WCI  21
BILLINGS       CLOUDY    39  32  76 W23       29.88R WCI  28
LIVINGSTON     CLOUDY    36  27  70 W20G28    29.92R WCI  25
MILES CITY     CLOUDY    37  25  62 N8        29.79R WCI  31
* EKALAKA APT  CLOUDY    34  25  70 W14G20    29.73R WCI  24
* LAUREL APT   MOCLDY    37  27  67 W14        N/A   WCI  28
* ROUNDUP APT  MOCLDY    39  28  65 N/A        N/A
* HYSHAM       N/A       38  22  53 NW5G11     N/A   WCI  34
* LAME DEER    N/A       34  32  92 W13G18     N/A   WCI  25
* REED POINT   N/A       38  29  70 W11G17     N/A   WCI  31
* ROSCOE HILL  N/A       34  16  48 W6G13      N/A   WCI  29
$$

REGIONAL REPORTS...DAKOTAS
CITY           SKY/WX    TMP DP  RH WIND       PRES   REMARKS
WILLISTON      MOCLDY   N/A N/A N/A N/A       29.91R
DICKINSON      PTCLDY    25  16  69 NE10      29.78R WCI  15
CROSBY         CLOUDY    23  23 100 E21       29.98R WCI   8
TIOGA          CLOUDY    23  23 100 E16G22    29.95R WCI  10
WATFORD CITY   CLOUDY    27  19  72 E14G21    29.86R WCI  16
BISMARCK       CLOUDY    28  19  69 E18G24    29.84R WCI  15
GRAND FORKS    CLOUDY    28  14  56 E10       30.00R WCI  19
FARGO          LGT SNOW  28  25  89 E13       29.96S VSB 1 1/2 WCI  17
BUFFALO SD     MOCLDY    34  25  70 NE13      29.63R WCI  25
RAPID CITY     CLOUDY    39  36  89 N14       29.64R WCI  31
$$

REGIONAL REPORTS...WYOMING/IDAHO/WASHINGTON
CITY           SKY/WX    TMP DP  RH WIND       PRES   REMARKS
GILLETTE       CLOUDY    36  32  85 NW22G30   29.77R WCI  25
SHERIDAN       MOCLDY    37  32  82 NW25G30   29.85R WCI  25
CODY           MOCLDY    32  25  75 E3        29.89R
YELLOWSTONE LA PTCLDY    18  16  92 CALM      29.95S
SALMON         MOCLDY    28  19  69 CALM      30.01S
MULLAN PASS    PTCLDY    27  21  78 S8        29.91S WCI  19
SAND POINT     PTCLDY    32  32 100 CALM      29.95S
SPOKANE        CLOUDY    39  25  57 SW9       29.96S WCI  33
$$

REGIONAL REPORTS...ALBERTA
CITY           SKY/WX    TMP DP  RH WIND       PRES   REMARKS
CALGARY        CLOUDY    27  21  78 N10       29.98S WCI  18
LETHBRIDGE     LGT SNOW  30  28  92 N8G17     29.94R VSB 1 1/2 WCI  22
MEDICINE HAT   CLOUDY    28  27  96 E6        29.98R WCI  21
EDMONTON       LGT SNOW  25  21  85 NE6       30.07R WCI  18
WATERTON GATE  N/A       30  30 100 N3         N/A
CARDSTON       N/A       30  30 100 NW9        N/A   WCI  22
MILK RIVER     N/A       32  32 100 NW3        N/A
$$

REGIONAL REPORTS...SASKATCHEWAN
CITY           SKY/WX    TMP DP  RH WIND       PRES   REMARKS
SWIFT CURRENT  CLOUDY    25  23  92 E12       29.94R WCI  14
MOOSE JAW      LGT SNOW  25  19  78 E13       30.03R WCI  13
REGINA         LGT SNOW  21  18  88 E15       30.04R WCI   7
VAL MARIE      N/A       19  18  96 N3         N/A
ASSINIBOIA     N/A       25  21  85 E12        N/A   WCI  14

$$





U.S. Dept. of Commerce
NOAA National Weather Service
1325 East West Highway
Silver Spring, MD 20910
E-mail: w-nws.webmaster@noaa.gov
Page last modified: May 16, 2007
NATIONAL WEATHER SERVICE: for Safety, for Work, for Fun - FOR LIFE